| time (UTC) | temp C | wind direction | speed KPH | gust KPH | rain 1hr cm | rain 24hr cm | rain mn cm | humidity % | barometer mb |
| 20260902063122 | 23 | 123 | 0.0 | 1.6 | 0.00 | 0.00 | 0.00 | 43 | 1019.2 |
| 20260902061634 | 23 | 131 | 0.0 | 1.6 | 0.00 | 0.00 | 0.00 | 43 | 1019.2 |
| 20260902060148 | 25 | 144 | 0.0 | 1.6 | 0.00 | 0.00 | 0.00 | 41 | 1019.2 |
| 20260902054622 | 25 | 147 | 0.0 | 4.8 | 0.00 | 0.00 | 0.00 | 41 | 1019.1 |
| 20260902053133 | 24 | 110 | 1.6 | 4.8 | 0.00 | 0.00 | 0.00 | 43 | 1019.3 |
| 20260902051628 | 24 | 208 | 0.0 | 3.2 | 0.00 | 0.00 | 0.00 | 43 | 1019.6 |
| 20260902050201 | 24 | 212 | 0.0 | 3.2 | 0.00 | 0.00 | 0.00 | 42 | 1019.6 |
| 20260902044635 | 24 | 218 | 0.0 | 3.2 | 0.00 | 0.03 | 0.00 | 42 | 1019.6 |
| 20260902043148 | 25 | 219 | 0.0 | 0.0 | 0.00 | 0.03 | 0.00 | 40 | 1019.5 |
| 20260902041658 | 25 | 244 | 0.0 | 0.0 | 0.00 | 0.03 | 0.00 | 40 | 1019.5 |
| 20260902040135 | 25 | 242 | 0.0 | 4.8 | 0.00 | 0.03 | 0.00 | 39 | 1019.3 |
| 20260902034625 | 26 | 106 | 0.0 | 1.6 | 0.00 | 0.05 | 0.00 | 36 | 1018.9 |
| 20260902033135 | 26 | 140 | 0.0 | 6.4 | 0.00 | 0.05 | 0.00 | 35 | 1018.8 |
| 20260902031648 | 26 | 128 | 1.6 | 4.8 | 0.00 | 0.05 | 0.00 | 37 | 1018.5 |
| 20260902030138 | 26 | 23 | 0.0 | 0.0 | 0.00 | 0.05 | 0.00 | 35 | 1018.0 |
| 20260902024648 | 27 | 23 | 0.0 | 1.6 | 0.00 | 0.05 | 0.00 | 33 | 1017.9 |
| 20260902023143 | 26 | 28 | 1.6 | 3.2 | 0.00 | 0.05 | 0.00 | 35 | 1017.8 |
| 20260902021633 | 27 | 285 | 0.0 | 1.6 | 0.00 | 0.05 | 0.00 | 34 | 1017.5 |
| 20260902020148 | 27 | 280 | 0.0 | 3.2 | 0.00 | 0.05 | 0.00 | 33 | 1017.3 |
| 20260902014640 | 28 | 79 | 0.0 | 0.0 | 0.00 | 0.05 | 0.00 | 31 | 1017.0 |
| 20260902013131 | 30 | 79 | 0.0 | 0.0 | 0.00 | 0.05 | 0.00 | 28 | 1016.8 |
| 20260902011624 | 31 | 78 | 0.0 | 0.0 | 0.00 | 0.05 | 0.00 | 26 | 1016.7 |
| 20260902010135 | 31 | 75 | 0.0 | 0.0 | 0.00 | 0.05 | 0.00 | 26 | 1016.8 |
| 20260902004630 | 31 | 72 | 0.0 | 3.2 | 0.00 | 0.05 | 0.00 | 25 | 1016.8 |
| 20260902003141 | 31 | 64 | 1.6 | 4.8 | 0.00 | 0.05 | 0.00 | 24 | 1016.8 |
| 20260902001651 | 32 | 99 | 3.2 | 4.8 | 0.00 | 0.05 | 0.00 | 24 | 1016.9 |
| 20260902000144 | 32 | 19 | 1.6 | 6.4 | 0.00 | 0.05 | 0.00 | 23 | 1017.0 |
| 20260901234634 | 33 | 274 | 0.0 | 4.8 | 0.00 | 0.05 | 0.00 | 23 | 1017.0 |
| 20260901233123 | 33 | 160 | 0.0 | 3.2 | 0.00 | 0.05 | 0.00 | 23 | 1016.9 |
| 20260901231639 | 33 | 261 | 1.6 | 3.2 | 0.00 | 0.05 | 0.00 | 23 | 1016.9 |
| 20260901230129 | 32 | 326 | 1.6 | 8.0 | 0.00 | 0.05 | 0.00 | 23 | 1017.0 |
| 20260901224643 | 33 | 309 | 3.2 | 9.7 | 0.00 | 0.05 | 0.00 | 22 | 1017.1 |
| 20260901223133 | 33 | 336 | 1.6 | 8.0 | 0.00 | 0.05 | 0.00 | 23 | 1017.4 |
| 20260901221622 | 33 | 102 | 0.0 | 12.9 | 0.00 | 0.05 | 0.00 | 22 | 1017.5 |
| 20260901220135 | 33 | 319 | 6.4 | 11.3 | 0.00 | 0.05 | 0.00 | 22 | 1017.5 |
| 20260901214626 | 33 | 35 | 8.0 | 16.1 | 0.00 | 0.05 | 0.00 | 23 | 1017.8 |
| 20260901213136 | 33 | 4 | 3.2 | 6.4 | 0.00 | 0.05 | 0.00 | 24 | 1017.9 |
| 20260901211630 | 32 | 352 | 3.2 | 11.3 | 0.00 | 0.05 | 0.00 | 24 | 1018.2 |
| 20260901210142 | 32 | 317 | 1.6 | 12.9 | 0.00 | 0.05 | 0.00 | 24 | 1018.5 |
| 20260901204630 | 32 | 329 | 6.4 | 11.3 | 0.00 | 0.05 | 0.00 | 25 | 1018.6 |
| 20260901203146 | 32 | 293 | 3.2 | 17.7 | 0.00 | 0.05 | 0.00 | 25 | 1018.9 |
| 20260901201635 | 32 | 231 | 8.0 | 16.1 | 0.00 | 0.05 | 0.00 | 25 | 1019.1 |
| 20260901200151 | 32 | 289 | 8.0 | 19.3 | 0.00 | 0.05 | 0.00 | 27 | 1019.4 |
| 20260901194642 | 32 | 256 | 6.4 | 19.3 | 0.00 | 0.05 | 0.00 | 26 | 1019.6 |
| 20260901193132 | 31 | 279 | 1.6 | 14.5 | 0.00 | 0.05 | 0.00 | 27 | 1019.7 |
| 20260901191627 | 31 | 162 | 0.0 | 9.7 | 0.00 | 0.05 | 0.00 | 28 | 1020.1 |
| 20260901190136 | 30 | 310 | 8.0 | 16.1 | 0.00 | 0.05 | 0.00 | 31 | 1020.2 |
| 20260901184627 | 30 | 290 | 8.0 | 14.5 | 0.00 | 0.05 | 0.00 | 31 | 1020.3 |
| 20260901183123 | 30 | 239 | 0.0 | 12.9 | 0.00 | 0.05 | 0.00 | 33 | 1020.4 |
| 20260901181635 | 30 | 256 | 4.8 | 11.3 | 0.00 | 0.05 | 0.00 | 35 | 1020.8 |
| 20260901180130 | 29 | 319 | 0.0 | 8.0 | 0.00 | 0.05 | 0.00 | 35 | 1020.9 |
| 20260901174621 | 28 | 333 | 4.8 | 9.7 | 0.00 | 0.05 | 0.00 | 37 | 1021.2 |
| 20260901173137 | 28 | 314 | 1.6 | 11.3 | 0.00 | 0.05 | 0.00 | 40 | 1021.4 |
| 20260901171628 | 27 | 319 | 4.8 | 11.3 | 0.00 | 0.05 | 0.00 | 43 | 1021.6 |
| 20260901170201 | 27 | 318 | 1.6 | 9.7 | 0.00 | 0.05 | 0.00 | 45 | 1021.2 |
| 20260901164634 | 26 | 9 | 3.2 | 9.7 | 0.00 | 0.05 | 0.00 | 45 | 1021.3 |
| 20260901163127 | 25 | 301 | 0.0 | 3.2 | 0.00 | 0.05 | 0.00 | 50 | 1021.3 |
| 20260901161621 | 24 | 312 | 0.0 | 3.2 | 0.00 | 0.05 | 0.00 | 54 | 1021.2 |
| 20260901160153 | 24 | 313 | 0.0 | 3.2 | 0.00 | 0.05 | 0.00 | 56 | 1021.1 |
| 20260901154628 | 23 | 270 | 0.0 | 4.8 | 0.00 | 0.05 | 0.00 | 55 | 1021.0 |
| 20260901153140 | 23 | 215 | 0.0 | 1.6 | 0.00 | 0.05 | 0.00 | 57 | 1020.9 |
| 20260901151653 | 23 | 284 | 0.0 | 1.6 | 0.00 | 0.05 | 0.00 | 60 | 1020.8 |
| 20260901150127 | 22 | 295 | 0.0 | 4.8 | 0.00 | 0.05 | 0.00 | 62 | 1020.8 |
| 20260901144659 | 22 | 265 | 1.6 | 8.0 | 0.00 | 0.05 | 0.00 | 60 | 1020.9 |
| 20260901143150 | 23 | 233 | 3.2 | 4.8 | 0.00 | 0.05 | 0.00 | 57 | 1020.7 |
| 20260901141625 | 22 | 156 | 0.0 | 3.2 | 0.00 | 0.05 | 0.00 | 61 | 1020.7 |
| 20260901140135 | 21 | 123 | 1.6 | 3.2 | 0.00 | 0.05 | 0.00 | 64 | 1020.5 |
| 20260901134630 | 20 | 184 | 0.0 | 0.0 | 0.00 | 0.05 | 0.00 | 70 | 1020.4 |
| 20260901133142 | 17 | 184 | 0.0 | 0.0 | 0.00 | 0.05 | 0.00 | 75 | 1020.3 |
| 20260901131653 | 17 | 184 | 0.0 | 0.0 | 0.00 | 0.05 | 0.00 | 75 | 1020.2 |
| 20260901130129 | 17 | 184 | 0.0 | 0.0 | 0.00 | 0.05 | 0.00 | 75 | 1020.1 |
| 20260901124700 | 17 | 184 | 0.0 | 0.0 | 0.00 | 0.05 | 0.00 | 75 | 1020.0 |
| 20260901123155 | 17 | 184 | 0.0 | 0.0 | 0.00 | 0.05 | 0.00 | 74 | 1019.7 |
| 20260901121624 | 17 | 126 | 0.0 | 0.0 | 0.00 | 0.05 | 0.00 | 73 | 1019.4 |
| 20260901120122 | 17 | 126 | 0.0 | 0.0 | 0.00 | 0.05 | 0.00 | 73 | 1019.3 |
| 20260901113130 | 18 | 126 | 0.0 | 0.0 | 0.00 | 0.05 | 0.00 | 72 | 1019.1 |
| 20260901111622 | 18 | 126 | 0.0 | 0.0 | 0.00 | 0.05 | 0.00 | 72 | 1019.0 |
| 20260901110134 | 18 | 126 | 0.0 | 0.0 | 0.00 | 0.05 | 0.00 | 72 | 1019.1 |
| 20260901104625 | 18 | 126 | 0.0 | 0.0 | 0.00 | 0.05 | 0.00 | 71 | 1019.1 |
| 20260901103122 | 18 | 126 | 0.0 | 0.0 | 0.00 | 0.05 | 0.00 | 71 | 1019.1 |
| 20260901101635 | 18 | 126 | 0.0 | 0.0 | 0.00 | 0.05 | 0.00 | 72 | 1019.2 |
| 20260901100130 | 18 | 130 | 0.0 | 4.8 | 0.00 | 0.05 | 0.00 | 71 | 1019.1 |
| 20260901094641 | 18 | 251 | 0.0 | 1.6 | 0.00 | 0.05 | 0.00 | 72 | 1019.1 |
| 20260901093137 | 18 | 249 | 0.0 | 0.0 | 0.00 | 0.05 | 0.00 | 72 | 1018.9 |
| 20260901091630 | 18 | 246 | 0.0 | 1.6 | 0.00 | 0.05 | 0.00 | 71 | 1018.8 |
| 20260901090141 | 20 | 283 | 0.0 | 0.0 | 0.00 | 0.05 | 0.00 | 69 | 1018.7 |
| 20260901084637 | 20 | 266 | 1.6 | 4.8 | 0.00 | 0.05 | 0.00 | 68 | 1018.9 |
| 20260901083129 | 21 | 301 | 0.0 | 0.0 | 0.00 | 0.05 | 0.00 | 65 | 1018.9 |
| 20260901081624 | 21 | 301 | 0.0 | 0.0 | 0.00 | 0.05 | 0.00 | 61 | 1019.1 |
| 20260901080136 | 21 | 301 | 0.0 | 0.0 | 0.00 | 0.05 | 0.00 | 64 | 1019.2 |
| 20260901074628 | 21 | 301 | 0.0 | 0.0 | 0.00 | 0.05 | 0.00 | 62 | 1019.0 |
| 20260901073142 | 22 | 301 | 0.0 | 0.0 | 0.00 | 0.05 | 0.00 | 59 | 1019.3 |
| 20260901071633 | 22 | 301 | 0.0 | 0.0 | 0.00 | 0.05 | 0.00 | 59 | 1019.4 |
| 20260901070130 | 22 | 301 | 0.0 | 0.0 | 0.00 | 0.05 | 0.00 | 57 | 1019.2 |
| 20260901064702 | 22 | 288 | 1.6 | 3.2 | 0.00 | 0.05 | 0.00 | 55 | 1019.3 |